Location: Melizzano
(41.1500°N, 14.5000°E)
Time: 23:05:23
(UTC+00:00)

RESURS DK-1 - Pass Details

Date: 11 May 2021
Orbit: 553 x 564 km, 69.9° (Epoch: 24 June)

Event Time Altitude Azimuth Distance (km) Brightness Sun altitude
Rises 22:59:19 0° 336° (NNW) 2,763 6.8 -30.7°
Reaches altitude 10° 23:01:33 10° 339° (NNW) 1,863 5.8 -30.7°
Enters shadow 23:03:33 27° 344° (NNW) 1,096 4.3 -30.7°
